Weather History for Christchurch, New Zealand

Change the Weather History Date:

Wednesday, October 23, 2013

  Actual Average Record
Temperature  
Mean Temperature 48 °F -  
Max Temperature 57 °F 61 °F 75 °F (2003)
Min Temperature 39 °F 43 °F 30 °F (2012)
Degree Days  
Heating Degree Days 17    
Moisture  
Dew Point 46 °F    
Average Humidity 84    
Maximum Humidity 100    
Minimum Humidity 63    
Precipitation  
Precipitation 0.00 in - - ()
Sea Level Pressure  
Sea Level Pressure 29.99 in    
Wind  
Wind Speed 9 mph ()    
Max Wind Speed 24 mph    
Max Gust Speed 31 mph    
Visibility 6.2 miles    
Events Rain    
Averages and records for this station are not official NWS values.
T = Trace of Precipitation, MM = Missing Value Source: Averaged Metar Reports

Daily Weather History Graph

Daily Weather History Graph

Search for Another Location

Airport:

Trip Planner

Search our weather history database for the weather conditions in past years. The results will help you decide how hot, cold, wet, or windy it might be!

Date:

Astronomy

Oct. 23, 2013 Rise Set
Actual Time 6:25 AM NZDT 8:03 PM NZDT
Civil Twilight 5:55 AM NZDT 8:33 PM NZDT
Nautical Twilight 5:19 AM NZDT 9:10 PM NZDT
Astronomical Twilight 4:40 AM NZDT 9:49 PM NZDT
Moon No Moon Rise 8:58 AM NZDT (10/23)
Length of Visible Light 14h 37m
Length of Day
13h 37m
Waning Gibbous, 85% of the Moon is Illuminated
Oct 23
Waning Gibbous
Oct 27
Last Quarter
Nov 4
New
Nov 10
First Quarter
Nov 18
Full

Hourly Weather History & Observations

Time (NZDT) Temp. Windchill Dew Point Humidity Pressure Visibility Wind Dir Wind Speed Gust Speed Precip Events Conditions
12:00 AM 44.6 °F 41.4 °F 42.8 °F 93% 29.95 in 6.2 mi ENE 5.8 mph - N/A   Unknown
12:30 AM 48.2 °F - 44.6 °F 87% 29.95 in 6.2 mi East 8.1 mph - N/A   Mostly Cloudy
1:00 AM 50.0 °F - 44.6 °F 82% 29.95 in 6.2 mi ENE 8.1 mph - N/A   Mostly Cloudy
1:30 AM 46.4 °F 42.9 °F 42.8 °F 87% 29.95 in 6.2 mi NE 6.9 mph - N/A   Mostly Cloudy
2:00 AM 42.8 °F 38.6 °F 41.0 °F 93% 29.95 in 6.2 mi ENE 6.9 mph - N/A   Unknown
2:30 AM 44.6 °F 40.7 °F 41.0 °F 87% 29.95 in 6.2 mi NE 6.9 mph - N/A   Unknown
3:00 AM 44.6 °F 42.2 °F 42.8 °F 93% 29.98 in 6.2 mi NNE 4.6 mph - N/A   Partly Cloudy
3:30 AM 44.6 °F 43.1 °F 42.8 °F 93% 29.98 in 6.2 mi NNE 3.5 mph - N/A   Unknown
4:00 AM 39.2 °F - 37.4 °F 93% 29.98 in 6.2 mi ENE 1.2 mph - N/A   Partly Cloudy
4:30 AM 41.0 °F - 39.2 °F 93% 29.98 in 6.2 mi Calm Calm - N/A   Mostly Cloudy
5:00 AM 42.8 °F - 42.8 °F 100% 29.98 in 6.2 mi South 2.3 mph - N/A   Overcast
5:30 AM 44.6 °F - 42.8 °F 93% 29.98 in 6.2 mi WNW 2.3 mph - N/A   Overcast
6:00 AM 42.8 °F - 42.8 °F 100% 30.01 in 6.2 mi West 2.3 mph - N/A   Overcast
6:30 AM 44.6 °F 42.2 °F 42.8 °F 93% 30.01 in 6.2 mi SW 4.6 mph - N/A   Overcast
7:00 AM 44.6 °F - 44.6 °F 100% 30.01 in 6.2 mi SW 2.3 mph - N/A   Mostly Cloudy
7:30 AM 46.4 °F 45.2 °F 44.6 °F 93% 30.04 in 6.2 mi West 3.5 mph - N/A   Overcast
8:00 AM 46.4 °F 45.2 °F 44.6 °F 93% 30.04 in 6.2 mi WSW 3.5 mph - N/A   Overcast
8:30 AM 48.2 °F - 46.4 °F 93% 30.06 in 6.2 mi West 3.5 mph - N/A   Mostly Cloudy
9:00 AM 50.0 °F - 48.2 °F 94% 30.06 in 6.2 mi SSW 3.5 mph - N/A   Overcast
9:30 AM 51.8 °F - 48.2 °F 88% 30.06 in 6.2 mi NNE 3.5 mph - N/A   Mostly Cloudy
10:00 AM 51.8 °F - 48.2 °F 88% 30.06 in 6.2 mi ENE 9.2 mph - N/A   Mostly Cloudy
10:30 AM 51.8 °F - 48.2 °F 88% 30.06 in 6.2 mi ENE 10.4 mph - N/A   Mostly Cloudy
11:00 AM 53.6 °F - 48.2 °F 82% 30.06 in 6.2 mi NE 11.5 mph - N/A   Mostly Cloudy
11:30 AM 53.6 °F - 48.2 °F 82% 30.06 in 6.2 mi NE 12.7 mph - N/A   Mostly Cloudy
12:00 PM 57.2 °F - 50.0 °F 77% 30.06 in 6.2 mi NE 13.8 mph - N/A   Mostly Cloudy
12:30 PM 55.4 °F - 48.2 °F 77% 30.06 in 6.2 mi ENE 13.8 mph - N/A   Mostly Cloudy
1:00 PM 57.2 °F - 48.2 °F 72% 30.04 in 6.2 mi NE 16.1 mph - N/A   Mostly Cloudy
1:30 PM 55.4 °F - 46.4 °F 72% 30.04 in 6.2 mi ENE 16.1 mph - N/A   Scattered Clouds
2:00 PM 57.2 °F - 46.4 °F 67% 30.01 in 6.2 mi ENE 16.1 mph - N/A   Partly Cloudy
2:30 PM 57.2 °F - 46.4 °F 67% 30.01 in 6.2 mi ENE 18.4 mph - N/A   Partly Cloudy
3:00 PM 57.2 °F - 44.6 °F 63% 30.01 in 6.2 mi ENE 19.6 mph - N/A   Unknown
3:30 PM 57.2 °F - 46.4 °F 67% 30.01 in 6.2 mi ENE 20.7 mph - N/A   Unknown
4:00 PM 55.4 °F - 44.6 °F 67% 29.98 in 6.2 mi ENE 24.2 mph - N/A   Unknown
4:30 PM 55.4 °F - 44.6 °F 67% 29.98 in 6.2 mi ENE 21.9 mph - N/A   Unknown
5:00 PM 55.4 °F - 44.6 °F 67% 29.98 in 6.2 mi ENE 20.7 mph - N/A   Unknown
5:30 PM 53.6 °F - 46.4 °F 77% 29.98 in 6.2 mi ENE 21.9 mph - N/A   Unknown
6:00 PM 53.6 °F - 46.4 °F 77% 29.95 in 6.2 mi ENE 21.9 mph - N/A   Unknown
6:30 PM 53.6 °F - 46.4 °F 77% 29.95 in 6.2 mi ENE 19.6 mph 31.1 mph N/A   Unknown
7:00 PM 53.6 °F - 46.4 °F 77% 29.95 in 6.2 mi ENE 20.7 mph - N/A   Partly Cloudy
7:30 PM 53.6 °F - 46.4 °F 77% 29.92 in 6.2 mi ENE 20.7 mph - N/A   Unknown
8:00 PM 53.6 °F - 46.4 °F 77% 29.92 in 6.2 mi ENE 20.7 mph - N/A   Unknown
8:30 PM 51.8 °F - 48.2 °F 88% 29.92 in 6.2 mi ENE 18.4 mph - N/A   Unknown
9:00 PM 51.8 °F - 48.2 °F 88% 29.92 in 6.2 mi ENE 17.3 mph - N/A   Unknown
9:30 PM 53.6 °F - 48.2 °F 82% 29.92 in 6.2 mi ENE 16.1 mph - N/A   Overcast
10:00 PM 51.8 °F - 48.2 °F 88% 29.92 in 6.2 mi ENE 15.0 mph - N/A   Drizzle
10:30 PM 51.8 °F - 48.2 °F 88% 29.89 in 6.2 mi ENE 12.7 mph - N/A Rain Light Rain Showers
11:00 PM 51.8 °F - 50.0 °F 94% 29.89 in 6.2 mi ENE 10.4 mph - N/A Rain Light Rain
11:30 PM 51.8 °F - 50.0 °F 94% 29.86 in 6.2 mi ENE 10.4 mph - N/A Rain Light Rain